Regional Weather Roundup
Issued by NWS Northern Indiana

Home | Current Version | Previous Version | Text Only | Print | Product List | Glossary On
Versions: 1 2 3 4 5 6 7 8 9 10 11 12 13 14 15 16 17 18 19 20 21 22 23 24 25 26 27 28 29 30 31 32 33 34 35 36 37 38 39 40 41 42 43 44 45 46 47 48 49 50
000
ASUS43 KIWX 171600
RWRIWX

KIWX WEATHER ROUNDUP
NATIONAL WEATHER SERVICE NORTHERN INDIANA
1200 PM EDT WED SEP 17 2014

NOTE: "FAIR" INDICATES FEW OR NO CLOUDS BELOW 12,000 FEET WITH NO
SIGNIFICANT WEATHER AND/OR OBSTRUCTIONS TO VISIBILITY.

* THESE STATIONS ARE NOT UNDER NWS QUALITY CONTROL. THEY ALSO MAY NOT
  REPORT WEATHER SUCH AS PRECIPITATION OR FOG.

INZ001>027-171700-
NORTHERN INDIANA

CITY           SKY/WX    TMP DP  RH WIND       PRES   REMARKS
VALPARAISO     SUNNY     64  49  57 W5        30.05S
SOUTH BEND     NOT AVBL
ELKHART*       MOSUNNY   63  46  55 S5        30.05S
GOSHEN         PTSUNNY   63  47  55 S7        30.04F
ANGOLA*        MOSUNNY   63  46  55 SW8       30.04S
FORT WAYNE     NOT AVBL
PERU/GRISSOM   SUNNY     62  50  65 VRB2      30.05S

$$
INZ028>050-171700-
CENTRAL INDIANA

CITY           SKY/WX    TMP DP  RH WIND       PRES   REMARKS
MUNCIE*        PTSUNNY   62  49  62 N3        30.05F
INDIANAPOLIS   NOT AVBL

$$
MIZ043>046-050>051-056>058-064>065-071>073-077>080-171700-
SOUTHWEST LOWER MICHIGAN

CITY           SKY/WX    TMP DP  RH WIND       PRES   REMARKS
BATTLE CREEK   SUNNY     61  42  49 CALM      30.04F
BENTON HARBOR  MOSUNNY   63  48  58 VRB3      30.03F
HOLLAND        CLOUDY    61  52  72 S5        30.03F
GRAND RAPIDS   MOSUNNY   64  50  60 SW10      30.03F
KALAMAZOO      SUNNY     62  45  53 VRB5      30.05S

$$
OHZ001>008-015>018-024>025-171700-
NORTHWEST OHIO

CITY           SKY/WX    TMP DP  RH WIND       PRES   REMARKS
DEFIANCE       SUNNY     63  46  54 VRB5      30.05F
FINDLAY        SUNNY     64  47  53 W5        30.04F
TOLEDO EXPRESS SUNNY     62  46  55 VRB3      30.04F
TOLEDO METCALF SUNNY     62  46  55 W10       30.05F
LIMA           MOSUNNY   64  48  56 VRB3      30.05F

$$
&&



USA.gov is the U.S. government's official web portal to all federal, state and local government web resources and services.